Regional Weather Roundup
Issued by NWS

Home | Current Version | Previous Version | Graphics & Text | Print | Product List | Glossary Off
Versions: 1 2 3 4 5 6 7 8 9 10 11 12 13 14 15 16 17 18 19 20 21 22 23 24 25 26 27 28 29 30 31 32 33 34 35 36 37 38 39 40 41 42 43 44 45 46 47 48 49 50

000
ASUS43 KTOP 020759
RWRKS

WEATHER ROUNDUP FOR KANSAS
NATIONAL WEATHER SERVICE GOODLAND KS
300 AM CDT THU APR 02 2015

NOTE:  "FAIR" INDICATES FEW OR NO CLOUDS BELOW 12,000 FEET WITH NO
SIGNIFICANT WEATHER AND/OR OBSTRUCTIONS TO VISIBILITY.

KSZ001>006-013>018-027>032-041>047-020900-
NORTHWEST KANSAS

CITY           SKY/WX    TMP DP  RH WIND       PRES   REMARKS
GOODLAND       PTCLDY    42  39  89 N7        29.87R
HAYS           MOCLDY    55  34  44 N22       29.77R
HILL CITY      CLOUDY    56  33  42 NE23      29.80F
RUSSELL        PTCLDY    57  40  52 NE21G31   29.75R
$$

KSZ061>065-074>080-084>089-020900-
SOUTHWEST KANSAS

CITY           SKY/WX    TMP DP  RH WIND       PRES   REMARKS
DODGE CITY     CLEAR     56  38  50 N24G30    29.75R
ELKHART          N/A     53  36  52 N9          N/A
GARDEN CITY    CLEAR     54  37  52 NE23G31   29.76R
GREAT BEND     PTCLDY    57  39  51 N24G32    29.74R
LIBERAL        CLEAR     57  34  41 NE17      29.77S
$$

KSZ066>073-081>083-090>101-020900-
SOUTHEAST KANSAS

CITY           SKY/WX    TMP DP  RH WIND       PRES   REMARKS
CHANUTE        MOCLDY    68  62  81 S25G33    29.64S
COFFEYVILLE    CLOUDY    68  62  81 S26G36    29.65S
HUTCHINSON     CLOUDY    62  53  72 NW16G24   29.69R
MEDICINE LODGE   N/A     64  60  87 N5        29.64R
NEWTON         MOCLDY    68  54  60 W16G22    29.66R
PARSONS        MOCLDY    68  63  84 SW16G26   29.67R
WICHITA INTL   MOCLDY    73  57  57 S33G46    29.59R
WICHITA JABRA  MOCLDY    74  52  46 S25G33    29.58S
WINFIELD       CLOUDY    69  61  75 SE9       29.64F
$$

KSZ007>012-019>026-033>040-048>060-102>105-020900-
NORTHEAST KANSAS

CITY           SKY/WX    TMP DP  RH WIND       PRES   REMARKS
CONCORDIA      CLOUDY    56  49  77 NE18G28   29.73R
EMPORIA        CLEAR     65  60  84 S24G32    29.55F
LAWRENCE       MOCLDY    66  59  78 N18G32    29.64R
MANHATTAN      LGT RAIN  57  54  89 NE20G30   29.67R
OLATHE IND     PTCLDY    65  60  84 S22G29    29.58F
OLATHE EXE     PTCLDY    64  60  87 S14G22    29.58F
SALINA         CLOUDY    58  53  84 N17       29.74R
TOPEKA BILLARD CLOUDY    68  59  73 NW10      29.66R
TOPEKA FORBES  MOCLDY    69  60  73 MISG      29.65R
$$


USA.gov is the U.S. government's official web portal to all federal, state and local government web resources and services.